• In Portugal
  • List of Countries
  • For 7 days
  • Water Temperature
  • Satellite Maps
  • Weather Map
  • Weather Widgets
  • user-avatar
    Login

    Hourly Weather Kiustendil

    Today, 25 September, Tuesday

    Time Temperature Precipitation Wind Pressure Humidity
    00:00 -1°C° 0 mm 4 mps 628 mmHg 74%
    01:00 0°C° 0 mm 3 mps 628 mmHg 76%
    02:00 -1°C° 0 mm 3 mps 628 mmHg 77%
    03:00 -2°C° 0 mm 3 mps 628 mmHg 79%
    04:00 -2°C° 0 mm 3 mps 628 mmHg 80%
    05:00 -1°C° 0 mm 3 mps 629 mmHg 74%
    06:00 -1°C° 0 mm 3 mps 629 mmHg 68%
    07:00 -1°C° 0 mm 4 mps 630 mmHg 62%
    08:00 +1°C° 0 mm 4 mps 631 mmHg 52%
    09:00 +3°C° 0 mm 5 mps 631 mmHg 41%
    10:00 +6°C° 0 mm 5 mps 632 mmHg 31%
    11:00 +7°C° 0 mm 5 mps 632 mmHg 28%
    12:00 +8°C° 0 mm 5 mps 632 mmHg 26%
    13:00 +8°C° 0 mm 6 mps 632 mmHg 24%
    14:00 +8°C° 0 mm 6 mps 632 mmHg 26%
    15:00 +7°C° 0 mm 5 mps 632 mmHg 28%
    16:00 +7°C° 0 mm 5 mps 631 mmHg 30%
    17:00 +3°C° 0 mm 5 mps 631 mmHg 37%
    18:00 +1°C° 0 mm 4 mps 631 mmHg 44%
    19:00 -1°C° 0 mm 3 mps 631 mmHg 51%
    20:00 -1°C° 0 mm 3 mps 631 mmHg 55%
    21:00 -2°C° 0 mm 3 mps 631 mmHg 59%
    22:00 -3°C° 0 mm 2 mps 631 mmHg 62%
    23:00 -4°C° 0 mm 2 mps 631 mmHg 64%

    Tomorrow, 26 September, Wednesday

    Time Temperature Precipitation Wind Pressure Humidity
    00:00 -4°C° 0 mm 2 mps 631 mmHg 66%
    01:00 -4°C° 0 mm 2 mps 631 mmHg 67%
    02:00 -5°C° 0 mm 2 mps 631 mmHg 68%
    03:00 -5°C° 0 mm 2 mps 631 mmHg 70%
    04:00 -6°C° 0 mm 2 mps 631 mmHg 71%
    05:00 -4°C° 0 mm 2 mps 631 mmHg 64%
    06:00 -3°C° 0 mm 2 mps 632 mmHg 58%
    07:00 -1°C° 0 mm 2 mps 633 mmHg 51%
    08:00 +1°C° 0 mm 3 mps 634 mmHg 44%
    09:00 +3°C° 0 mm 4 mps 634 mmHg 37%
    10:00 +5°C° 0 mm 4 mps 635 mmHg 30%
    11:00 +6°C° 0 mm 5 mps 635 mmHg 28%
    12:00 +7°C° 0 mm 5 mps 635 mmHg 25%
    13:00 +7°C° 0 mm 5 mps 635 mmHg 22%
    14:00 +7°C° 0 mm 6 mps 634 mmHg 24%
    15:00 +5°C° 0 mm 6 mps 634 mmHg 25%
    16:00 +5°C° 0 mm 6 mps 633 mmHg 26%
    17:00 +2°C° 0 mm 5 mps 633 mmHg 32%
    18:00 0°C° 0 mm 4 mps 632 mmHg 39%
    19:00 -2°C° 0 mm 3 mps 632 mmHg 46%
    20:00 -2°C° 0 mm 3 mps 632 mmHg 50%
    21:00 -3°C° 0 mm 2 mps 632 mmHg 54%
    22:00 -4°C° 0 mm 2 mps 632 mmHg 58%
    23:00 -4°C° 0 mm 2 mps 632 mmHg 59%

    Day after tomorrow, 27 September, Thursday

    Time Temperature Precipitation Wind Pressure Humidity
    00:00 -5°C° 0 mm 2 mps 631 mmHg 60%
    01:00 -5°C° 0 mm 2 mps 631 mmHg 61%
    02:00 -5°C° 0 mm 2 mps 631 mmHg 61%
    03:00 -5°C° 0 mm 2 mps 631 mmHg 62%
    04:00 -6°C° 0 mm 2 mps 630 mmHg 62%
    05:00 -5°C° 0 mm 3 mps 631 mmHg 57%
    06:00 -4°C° 0 mm 3 mps 631 mmHg 51%
    07:00 -1°C° 0 mm 3 mps 632 mmHg 45%
    08:00 0°C° 0 mm 4 mps 632 mmHg 38%
    09:00 +3°C° 0 mm 5 mps 633 mmHg 31%
    10:00 +6°C° 0 mm 5 mps 633 mmHg 24%
    11:00 +7°C° 0 mm 6 mps 633 mmHg 23%
    12:00 +8°C° 0 mm 6 mps 633 mmHg 21%
    13:00 +9°C° 0 mm 7 mps 633 mmHg 19%
    14:00 +9°C° 0 mm 7 mps 632 mmHg 20%
    15:00 +8°C° 0 mm 6 mps 631 mmHg 20%
    16:00 +8°C° 0 mm 6 mps 631 mmHg 21%
    17:00 +5°C° 0 mm 5 mps 630 mmHg 28%
    18:00 +1°C° 0 mm 4 mps 629 mmHg 34%
    19:00 -1°C° 0 mm 3 mps 629 mmHg 41%
    20:00 -1°C° 0 mm 3 mps 628 mmHg 43%
    21:00 -2°C° 0 mm 2 mps 628 mmHg 45%
    22:00 -2°C° 0 mm 2 mps 628 mmHg 46%
    23:00 -2°C° 0 mm 2 mps 628 mmHg 46%

    28 September, Friday

    Time Temperature Precipitation Wind Pressure Humidity
    00:00 -2°C° 0 mm 2 mps 627 mmHg 46%
    01:00 -2°C° 0 mm 2 mps 627 mmHg 46%
    02:00 -2°C° 0.1 mm 2 mps 627 mmHg 47%
    03:00 -2°C° 0.1 mm 2 mps 627 mmHg 47%
    04:00 -2°C° 0.1 mm 2 mps 627 mmHg 48%
    05:00 -1°C° 0.2 mm 2 mps 627 mmHg 49%
    06:00 -1°C° 0.2 mm 2 mps 627 mmHg 51%
    07:00 +1°C° 0.2 mm 2 mps 627 mmHg 52%
    08:00 +3°C° 0 mm 2 mps 628 mmHg 45%
    09:00 +5°C° 0 mm 2 mps 628 mmHg 39%
    10:00 +8°C° 0 mm 3 mps 629 mmHg 32%
    11:00 +9°C° 0 mm 3 mps 629 mmHg 31%
    12:00 +11°C° 0 mm 3 mps 629 mmHg 30%
    13:00 +14°C° 0 mm 2 mps 629 mmHg 29%
    14:00 +14°C° 0 mm 2 mps 629 mmHg 31%
    15:00 +13°C° 0 mm 2 mps 628 mmHg 33%
    16:00 +13°C° 0 mm 2 mps 628 mmHg 34%
    17:00 +9°C° 0 mm 2 mps 627 mmHg 43%
    18:00 +8°C° 0 mm 1 mps 626 mmHg 51%
    19:00 +5°C° 0 mm 1 mps 625 mmHg 59%
    20:00 +5°C° 0 mm 1 mps 625 mmHg 60%
    21:00 +5°C° 0 mm 1 mps 625 mmHg 61%
    22:00 +4°C° 0 mm 1 mps 625 mmHg 62%
    23:00 +4°C° 0.1 mm 1 mps 625 mmHg 63%

    29 September, Saturday

    Time Temperature Precipitation Wind Pressure Humidity
    00:00 +4°C° 0.1 mm 1 mps 625 mmHg 65%
    01:00 +4°C° 0.1 mm 1 mps 624 mmHg 67%
    02:00 +3°C° 0 mm 1 mps 624 mmHg 68%
    03:00 +3°C° 0 mm 1 mps 624 mmHg 70%
    04:00 +2°C° 0 mm 1 mps 623 mmHg 72%
    05:00 +4°C° 0 mm 1 mps 624 mmHg 67%
    06:00 +5°C° 0 mm 1 mps 624 mmHg 62%
    07:00 +6°C° 0 mm 1 mps 625 mmHg 57%
    08:00 +8°C° 0 mm 1 mps 626 mmHg 51%
    09:00 +9°C° 0 mm 2 mps 626 mmHg 45%
    10:00 +12°C° 0 mm 2 mps 627 mmHg 39%
    11:00 +13°C° 0 mm 2 mps 627 mmHg 37%
    12:00 +14°C° 0 mm 2 mps 627 mmHg 35%
    13:00 +15°C° 0 mm 2 mps 627 mmHg 33%
    14:00 +13°C° 0 mm 3 mps 627 mmHg 34%
    15:00 +13°C° 0 mm 3 mps 627 mmHg 34%
    16:00 +13°C° 0 mm 3 mps 627 mmHg 35%
    17:00 +10°C° 0 mm 2 mps 627 mmHg 41%
    18:00 +8°C° 0 mm 2 mps 626 mmHg 47%
    19:00 +6°C° 0 mm 2 mps 626 mmHg 53%
    20:00 +5°C° 0 mm 2 mps 626 mmHg 56%
    21:00 +4°C° 0 mm 2 mps 626 mmHg 59%
    22:00 +4°C° 0 mm 2 mps 626 mmHg 62%
    23:00 +4°C° 0 mm 1 mps 626 mmHg 64%

    30 September, Sunday

    Time Temperature Precipitation Wind Pressure Humidity
    00:00 +4°C° 0 mm 1 mps 626 mmHg 66%
    01:00 +3°C° 0 mm 1 mps 626 mmHg 67%
    02:00 +3°C° 0 mm 1 mps 626 mmHg 68%
    03:00 +3°C° 0 mm 1 mps 626 mmHg 69%
    04:00 +3°C° 0 mm 1 mps 626 mmHg 70%
    05:00 +4°C° 0 mm 1 mps 627 mmHg 65%
    06:00 +5°C° 0 mm 1 mps 627 mmHg 60%
    07:00 +7°C° 0 mm 1 mps 628 mmHg 55%
    08:00 +9°C° 0 mm 1 mps 629 mmHg 48%
    09:00 +11°C° 0 mm 1 mps 630 mmHg 41%
    10:00 +14°C° 0 mm 1 mps 631 mmHg 34%
    11:00 +14°C° 0 mm 1 mps 631 mmHg 33%
    12:00 +15°C° 0 mm 1 mps 630 mmHg 31%
    13:00 +16°C° 0 mm 1 mps 630 mmHg 30%
    14:00 +15°C° 0 mm 1 mps 630 mmHg 31%
    15:00 +15°C° 0 mm 1 mps 630 mmHg 33%
    16:00 +14°C° 0 mm 1 mps 629 mmHg 35%
    17:00 +12°C° 0 mm 1 mps 629 mmHg 41%
    18:00 +10°C° 0 mm 1 mps 628 mmHg 48%
    19:00 +8°C° 0 mm 1 mps 628 mmHg 54%
    20:00 +7°C° 0 mm 1 mps 627 mmHg 58%
    21:00 +6°C° 0 mm 1 mps 627 mmHg 61%
    22:00 +6°C° 0 mm 1 mps 627 mmHg 65%
    23:00 +5°C° 0 mm 1 mps 627 mmHg 67%
    Show more